Weather History for KGRF - February, 2014

Change the Weather History Date:

Tuesday, February 4, 2014

  Actual Average Record
Temperature  
Mean Temperature 28 °F -  
Max Temperature 33 °F 47 °F 58 °F (2009)
Min Temperature 23 °F 32 °F 23 °F (2014)
Degree Days  
Heating Degree Days 37    
Moisture  
Dew Point 21 °F    
Average Humidity 71    
Maximum Humidity 94    
Minimum Humidity 46    
Precipitation  
Precipitation 0.00 in - - ()
Sea Level Pressure  
Sea Level Pressure 30.29 in    
Wind  
Wind Speed 4 mph (NE)    
Max Wind Speed 10 mph    
Max Gust Speed -    
Visibility 10 miles    
Events Snow    
Averages and records for this station are not official NWS values.
T = Trace of Precipitation, MM = Missing Value Source: NWS Daily Summary

Daily Weather History Graph

Daily Weather History Graph

Search for Another Location

Airport or City:

Trip Planner

Search our weather history database for the weather conditions in past years. The results will help you decide how hot, cold, wet, or windy it might be!

Date:

Astronomy

Feb. 04, 2014 Rise Set
Actual Time 7:31 AM PST 5:17 PM PST
Civil Twilight 6:59 AM PST 5:50 PM PST
Nautical Twilight 6:22 AM PST 6:26 PM PST
Astronomical Twilight 5:47 AM PST 7:02 PM PST
Moon 9:48 AM PST (2/4) 11:44 PM PST (2/4)
Length of Visible Light 10h 51m
Length of Day
9h 46m
Waxing Crescent, 30% of the Moon is Illuminated
Feb 4
Waxing Crescent
Feb 6
First Quarter
Feb 14
Full
Feb 22
Last Quarter
Mar 1
New

Hourly Weather History & Observations

Time (PST) Temp. Windchill Dew Point Humidity Pressure Visibility Wind Dir Wind Speed Gust Speed Precip Events Conditions
12:58 AM 25.3 °F - 22.1 °F 87% 30.22 in 10.0 mi SE 2.3 mph - N/A   Overcast
1:48 AM 24.8 °F - 21.2 °F 86% 30.19 in 10.0 mi SSE 2.3 mph - N/A   Clear
1:58 AM 23.7 °F 19.3 °F 21.7 °F 92% 30.22 in 10.0 mi SE 3.5 mph - N/A   Clear
2:58 AM 25.0 °F - 23.0 °F 92% 30.22 in 10.0 mi Calm Calm - N/A   Mostly Cloudy
3:58 AM 23.9 °F 18.0 °F 22.5 °F 94% 30.22 in 10.0 mi SSE 4.6 mph - N/A   Mostly Cloudy
4:58 AM 25.9 °F - 23.7 °F 92% 30.25 in 10.0 mi Calm Calm - N/A   Overcast
5:35 AM 26.6 °F - 23.0 °F 86% 30.22 in 10.0 mi West 1.2 mph - N/A   Overcast
5:58 AM 26.2 °F - 24.3 °F 92% 30.25 in 10.0 mi Calm Calm - 0.00 in   Overcast
6:58 AM 27.0 °F - 23.7 °F 88% 30.25 in 10.0 mi Calm Calm - N/A   Overcast
7:20 AM 28.4 °F 23.3 °F 23.0 °F 80% 30.23 in 10.0 mi NNE 4.6 mph - N/A Snow Light Snow
7:32 AM 28.4 °F 21.2 °F 23.0 °F 80% 30.23 in 10.0 mi NNE 6.9 mph - N/A Snow Light Snow
7:39 AM 28.4 °F 22.2 °F 23.0 °F 80% 30.23 in 10.0 mi NNE 5.8 mph - N/A   Overcast
7:58 AM 27.7 °F - 22.5 °F 81% 30.27 in 10.0 mi NE 2.3 mph - N/A   Overcast
8:58 AM 28.6 °F - 23.4 °F 81% 30.28 in 10.0 mi South 2.3 mph - 0.00 in   Overcast
9:33 AM 30.2 °F - 23.0 °F 75% 30.26 in 10.0 mi ESE 2.3 mph - N/A   Overcast
9:58 AM 29.8 °F - 24.3 °F 80% 30.30 in 10.0 mi SE 1.2 mph - N/A   Overcast
10:20 AM 32.0 °F - 24.8 °F 75% 30.28 in 10.0 mi SE 2.3 mph - N/A   Overcast
10:58 AM 30.7 °F 27.3 °F 25.5 °F 81% 30.32 in 10.0 mi Variable 3.5 mph - 0.00 in   Overcast
11:10 AM 32.0 °F - 23.0 °F 69% 30.29 in 10.0 mi Variable 2.3 mph - N/A Snow Light Snow
11:27 AM 32.0 °F 27.5 °F 23.0 °F 69% 30.29 in 10.0 mi NE 4.6 mph - N/A Snow Light Snow
11:28 AM 32.0 °F 26.4 °F 23.0 °F 69% 30.29 in 10.0 mi ENE 5.8 mph - N/A   Overcast
11:58 AM 32.4 °F - 23.4 °F 69% 30.31 in 10.0 mi Variable 2.3 mph - N/A   Overcast
12:36 PM 32.0 °F 25.6 °F 21.2 °F 64% 30.28 in 10.0 mi NE 6.9 mph - N/A Snow Light Snow
12:46 PM 32.0 °F 26.4 °F 23.0 °F 69% 30.28 in 10.0 mi East 5.8 mph - N/A   Mostly Cloudy
12:58 PM 33.1 °F 27.7 °F 22.8 °F 66% 30.31 in 10.0 mi ENE 5.8 mph - 0.00 in   Mostly Cloudy
1:48 PM 32.0 °F 25.6 °F 23.0 °F 69% 30.27 in 10.0 mi NNE 6.9 mph - N/A   Overcast
1:53 PM 32.0 °F 24.8 °F 23.0 °F 69% 30.27 in 10.0 mi North 8.1 mph - N/A Snow Light Snow
1:58 PM 33.3 °F 26.4 °F 22.5 °F 65% 30.30 in 10.0 mi North 8.1 mph - 0.00 in Snow Light Snow
2:06 PM 32.0 °F 27.5 °F 23.0 °F 69% 30.27 in 6.0 mi North 4.6 mph - N/A Snow Light Snow
2:41 PM 32.0 °F 24.2 °F 23.0 °F 69% 30.27 in 7.0 mi NNW 9.2 mph - N/A Snow Light Snow
2:47 PM 32.0 °F 24.2 °F 23.0 °F 69% 30.27 in 10.0 mi NNW 9.2 mph - N/A   Mostly Cloudy
2:58 PM 32.5 °F 24.8 °F 23.2 °F 68% 30.30 in 10.0 mi North 9.2 mph - 0.00 in   Mostly Cloudy
3:32 PM 32.0 °F 24.8 °F 21.2 °F 64% 30.27 in 10.0 mi North 8.1 mph - N/A   Light Drizzle
3:40 PM 32.0 °F 25.6 °F 21.2 °F 64% 30.27 in 10.0 mi North 6.9 mph - N/A   Overcast
3:58 PM 32.9 °F 24.7 °F 21.6 °F 63% 30.31 in 10.0 mi NNE 10.4 mph - 0.00 in   Overcast
4:30 PM 32.0 °F 23.6 °F 21.2 °F 64% 30.28 in 10.0 mi NNE 10.4 mph - N/A   Overcast
4:59 PM 32.0 °F 25.6 °F 19.4 °F 60% 30.32 in 10.0 mi North 6.9 mph - N/A   Overcast
5:59 PM 32.0 °F 25.6 °F 17.6 °F 55% 30.32 in 10.0 mi North 6.9 mph - N/A   Overcast
6:58 PM 32.0 °F 24.2 °F 15.8 °F 51% 30.32 in 10.0 mi North 9.2 mph - N/A   Overcast
7:59 PM 32.0 °F 24.2 °F 14.0 °F 48% 30.35 in 10.0 mi North 9.2 mph - N/A   Overcast
8:58 PM 30.4 °F 21.5 °F 11.8 °F 46% 30.37 in 10.0 mi NNE 10.4 mph - N/A   Overcast
9:58 PM 29.7 °F 21.3 °F 11.8 °F 48% 30.38 in 10.0 mi NE 9.2 mph - N/A   Overcast
10:58 PM 28.8 °F 21.7 °F 12.4 °F 50% 30.40 in 10.0 mi NE 6.9 mph - N/A   Overcast
11:48 PM 28.4 °F 20.4 °F 14.0 °F 55% 30.38 in 10.0 mi NNE 8.1 mph - N/A   Overcast
11:58 PM 28.4 °F 21.2 °F 13.5 °F 54% 30.42 in 10.0 mi North 6.9 mph - N/A   Overcast